ARG2443 LICR-LIRN

Flight info

Callsign ARG2443
Flight time 0h 47m
Altitude 30000
Route PAZZE DCT BAGIX DCT DELER DCT SOR
Aircraft B737/M-SDE2E3FGHIRWXY/LB1

Departure

Time 2026-04-24 21:37
Airport Reggio Calabria Airport (LICR)

Arrival

Time 2026-04-24 22:24
Airport Naples International Airport (LIRN)
Time Latitude Longitude Altitude Speed Heading
2026-04-24 21:14 38.07305 15.65337 48 ft 0 kts 121°
2026-04-24 21:27 38.07306 15.65335 48 ft 2 kts 121°
2026-04-24 21:28 38.07316 15.65319 48 ft 3 kts 74°
2026-04-24 21:28 38.07321 15.65306 46 ft 4 kts 331°
2026-04-24 21:28 38.07311 15.65311 48 ft 4 kts 359°
2026-04-24 21:28 38.07296 15.65302 48 ft 4 kts 61°
2026-04-24 21:29 38.07297 15.65278 48 ft 4 kts 115°
2026-04-24 21:29 38.07315 15.65260 48 ft 4 kts 168°
2026-04-24 21:29 38.07333 15.65254 48 ft 0 kts 153°
2026-04-24 21:32 38.07330 15.65256 48 ft 3 kts 152°
2026-04-24 21:32 38.07295 15.65281 47 ft 8 kts 151°
2026-04-24 21:32 38.07235 15.65323 47 ft 12 kts 151°
2026-04-24 21:32 38.07154 15.65379 45 ft 16 kts 151°
2026-04-24 21:33 38.07045 15.65392 35 ft 15 kts 243°
2026-04-24 21:33 38.07060 15.65308 38 ft 11 kts 292°
2026-04-24 21:33 38.07085 15.65213 39 ft 6 kts 263°
2026-04-24 21:33 38.07062 15.65200 39 ft 7 kts 173°
2026-04-24 21:34 38.06984 15.65245 35 ft 18 kts 154°
2026-04-24 21:34 38.06848 15.65335 34 ft 27 kts 152°
2026-04-24 21:34 38.06665 15.65456 32 ft 31 kts 153°
2026-04-24 21:34 38.06516 15.65589 31 ft 24 kts 122°
2026-04-24 21:35 38.06447 15.65638 33 ft 7 kts 229°
2026-04-24 21:35 38.06468 15.65580 32 ft 2 kts 317°
2026-04-24 21:35 38.06483 15.65570 32 ft 6 kts 335°
2026-04-24 21:35 38.06490 15.65567 32 ft 0 kts 335°
2026-04-24 21:36 38.06495 15.65563 32 ft 0 kts 333°
2026-04-24 21:36 38.06648 15.65461 32 ft 72 kts 333°
2026-04-24 21:37 38.07376 15.64999 59 ft 160 kts 335°
2026-04-24 21:37 38.08462 15.64337 916 ft 178 kts 335°
2026-04-24 21:37 38.09542 15.63689 2398 ft 171 kts 339°
2026-04-24 21:37 38.10728 15.63097 3260 ft 189 kts 340°
2026-04-24 21:38 38.11988 15.62483 4141 ft 196 kts 340°
2026-04-24 21:38 38.13268 15.61853 5023 ft 199 kts 340°
2026-04-24 21:38 38.14544 15.61216 5905 ft 201 kts 342°
2026-04-24 21:38 38.15981 15.60785 6314 ft 227 kts 352°
2026-04-24 21:39 38.17606 15.60476 6823 ft 251 kts 353°
2026-04-24 21:39 38.19375 15.60146 7662 ft 261 kts 353°
2026-04-24 21:39 38.21175 15.59800 8764 ft 262 kts 353°
2026-04-24 21:39 38.22983 15.59441 9823 ft 265 kts 353°
2026-04-24 21:40 38.24842 15.59064 10591 ft 280 kts 352°
2026-04-24 21:40 38.26869 15.58647 10834 ft 311 kts 352°
2026-04-24 21:40 38.29103 15.58181 11133 ft 336 kts 351°
2026-04-24 21:40 38.31451 15.57687 11860 ft 345 kts 351°
2026-04-24 21:41 38.33841 15.57184 12719 ft 350 kts 351°
2026-04-24 21:41 38.36258 15.56676 13618 ft 353 kts 351°
2026-04-24 21:41 38.38691 15.56165 14518 ft 357 kts 351°
2026-04-24 21:41 38.41156 15.55648 15357 ft 361 kts 352°
2026-04-24 21:42 38.43646 15.55124 16186 ft 364 kts 352°
2026-04-24 21:42 38.46166 15.54593 16960 ft 368 kts 352°
2026-04-24 21:42 38.48712 15.54056 17733 ft 372 kts 352°
2026-04-24 21:42 38.51251 15.53521 18484 ft 376 kts 352°
2026-04-24 21:43 38.53842 15.52974 19149 ft 381 kts 352°
2026-04-24 21:43 38.56483 15.52417 19797 ft 385 kts 352°
2026-04-24 21:43 38.59153 15.51956 20439 ft 389 kts 356°
2026-04-24 21:43 38.61871 15.51711 21068 ft 393 kts 359°
2026-04-24 21:44 38.64618 15.51547 21703 ft 396 kts 360°
2026-04-24 21:44 38.67388 15.51393 22293 ft 400 kts 359°
2026-04-24 21:44 38.70157 15.51227 22846 ft 405 kts 359°
2026-04-24 21:44 38.72980 15.51040 23400 ft 408 kts 359°
2026-04-24 21:45 38.75838 15.50837 23944 ft 412 kts 359°
2026-04-24 21:45 38.78711 15.50625 24472 ft 415 kts 359°
2026-04-24 21:45 38.81603 15.50408 24970 ft 419 kts 359°
2026-04-24 21:45 38.84537 15.50187 25433 ft 423 kts 359°
2026-04-24 21:46 38.87459 15.49968 25874 ft 426 kts 359°
2026-04-24 21:46 38.90440 15.49744 26317 ft 429 kts 359°
2026-04-24 21:46 38.93439 15.49518 26760 ft 432 kts 360°
2026-04-24 21:46 38.96447 15.49047 27146 ft 440 kts 350°
2026-04-24 21:47 38.99369 15.47786 27546 ft 448 kts 339°
2026-04-24 21:47 39.01226 15.46566 27811 ft 453 kts 332°
2026-04-24 21:47 39.04589 15.43282 28312 ft 461 kts 323°
2026-04-24 21:47 39.07034 15.40563 28649 ft 465 kts 322°
2026-04-24 21:48 39.09470 15.37798 29015 ft 468 kts 322°
2026-04-24 21:48 39.11912 15.35023 29490 ft 467 kts 322°
2026-04-24 21:48 39.14348 15.32273 30029 ft 465 kts 322°
2026-04-24 21:49 39.19243 15.26811 30125 ft 466 kts 322°
2026-04-24 21:49 39.24159 15.21365 30132 ft 465 kts 323°
2026-04-24 21:50 39.29082 15.15914 30132 ft 465 kts 323°
2026-04-24 21:50 39.33969 15.10489 30130 ft 465 kts 323°
2026-04-24 21:51 39.38893 15.05011 30121 ft 466 kts 322°
2026-04-24 21:51 39.43794 14.99545 30119 ft 467 kts 322°
2026-04-24 21:52 39.48712 14.94051 30120 ft 467 kts 322°
2026-04-24 21:52 39.53651 14.88522 30120 ft 468 kts 322°
2026-04-24 21:53 39.58558 14.83018 30112 ft 469 kts 322°
2026-04-24 21:53 39.63502 14.77463 30109 ft 470 kts 322°
2026-04-24 21:54 39.68422 14.71923 30110 ft 471 kts 322°
2026-04-24 21:54 39.73388 14.66319 30112 ft 472 kts 322°
2026-04-24 21:55 39.78327 14.60736 30110 ft 473 kts 322°
2026-04-24 21:55 39.83303 14.55098 30111 ft 474 kts 322°
2026-04-24 21:56 39.88273 14.49457 30110 ft 475 kts 322°
2026-04-24 21:56 39.93256 14.43790 30108 ft 476 kts 322°
2026-04-24 21:57 39.98242 14.38107 30110 ft 477 kts 322°
2026-04-24 21:57 40.03232 14.32410 30110 ft 477 kts 322°
2026-04-24 21:58 40.08245 14.26673 30112 ft 478 kts 322°
2026-04-24 21:58 40.13218 14.20973 29958 ft 480 kts 322°
2026-04-24 21:58 40.15988 14.18531 28980 ft 478 kts 339°
2026-04-24 21:59 40.19129 14.17262 27979 ft 468 kts 355°
2026-04-24 21:59 40.22340 14.17088 27117 ft 456 kts
2026-04-24 21:59 40.25401 14.17904 26310 ft 442 kts 21°
2026-04-24 21:59 40.27316 14.18778 25826 ft 436 kts 23°
2026-04-24 22:00 40.31068 14.20606 24779 ft 428 kts 24°
2026-04-24 22:00 40.33836 14.21969 23993 ft 423 kts 24°
2026-04-24 22:00 40.36576 14.23298 23225 ft 417 kts 23°
2026-04-24 22:00 40.38412 14.24177 22709 ft 413 kts 22°
2026-04-24 22:01 40.41099 14.25450 21957 ft 408 kts 22°
2026-04-24 22:01 40.43725 14.26686 21215 ft 404 kts 22°
2026-04-24 22:01 40.46360 14.27924 20465 ft 399 kts 22°
2026-04-24 22:01 40.48962 14.29146 19721 ft 395 kts 22°
2026-04-24 22:02 40.51534 14.30357 18987 ft 391 kts 21°
2026-04-24 22:02 40.53880 14.31461 18306 ft 387 kts 21°
2026-04-24 22:02 40.56402 14.32653 17571 ft 383 kts 22°
2026-04-24 22:02 40.58723 14.34316 16955 ft 376 kts 39°
2026-04-24 22:03 40.60592 14.36656 16628 ft 368 kts 47°
2026-04-24 22:03 40.62287 14.39116 16275 ft 369 kts 48°
2026-04-24 22:03 40.64007 14.41666 15911 ft 374 kts 48°
2026-04-24 22:03 40.65753 14.44213 15536 ft 374 kts 47°
2026-04-24 22:04 40.67508 14.46730 15177 ft 371 kts 47°
2026-04-24 22:04 40.69254 14.49218 14816 ft 368 kts 47°
2026-04-24 22:04 40.70945 14.51701 14406 ft 359 kts 48°
2026-04-24 22:04 40.72560 14.54137 14045 ft 347 kts 48°
2026-04-24 22:05 40.74123 14.56498 13703 ft 336 kts 48°
2026-04-24 22:05 40.75640 14.58783 13388 ft 326 kts 48°
2026-04-24 22:05 40.77119 14.61008 13076 ft 317 kts 47°
2026-04-24 22:05 40.78781 14.62822 12751 ft 308 kts 27°
2026-04-24 22:06 40.80787 14.63649 12491 ft 299 kts
2026-04-24 22:06 40.82820 14.63540 12384 ft 286 kts 350°
2026-04-24 22:06 40.84643 14.62673 12262 ft 274 kts 333°
2026-04-24 22:06 40.86240 14.61409 12209 ft 262 kts 330°
2026-04-24 22:07 40.87744 14.60190 12148 ft 245 kts 337°
2026-04-24 22:07 40.89331 14.59785 12028 ft 224 kts
2026-04-24 22:07 40.90761 14.60348 11921 ft 208 kts 27°
2026-04-24 22:07 40.91904 14.61405 11780 ft 196 kts 43°
2026-04-24 22:08 40.92725 14.62834 11438 ft 195 kts 56°
2026-04-24 22:08 40.93437 14.64360 11100 ft 194 kts 57°
2026-04-24 22:08 40.94139 14.65884 10742 ft 194 kts 57°
2026-04-24 22:08 40.94826 14.67371 10511 ft 188 kts 57°
2026-04-24 22:09 40.95509 14.68842 10338 ft 187 kts 57°
2026-04-24 22:09 40.96195 14.70316 10253 ft 189 kts 56°
2026-04-24 22:09 40.96892 14.71811 10137 ft 193 kts 57°
2026-04-24 22:09 40.97603 14.73335 10014 ft 195 kts 57°
2026-04-24 22:10 40.98315 14.74863 9889 ft 194 kts 57°
2026-04-24 22:10 40.99021 14.76376 9772 ft 192 kts 57°
2026-04-24 22:10 40.99713 14.77857 9658 ft 191 kts 57°
2026-04-24 22:10 41.00413 14.79354 9557 ft 194 kts 57°
2026-04-24 22:11 41.01177 14.80988 9462 ft 220 kts 57°
2026-04-24 22:11 41.01999 14.82748 9296 ft 226 kts 57°
2026-04-24 22:11 41.02827 14.84526 9162 ft 227 kts 57°
2026-04-24 22:11 41.03830 14.86117 8999 ft 226 kts 34°
2026-04-24 22:12 41.05291 14.86798 8886 ft 225 kts
2026-04-24 22:12 41.06812 14.86458 8763 ft 227 kts 339°
2026-04-24 22:12 41.08216 14.85452 8539 ft 232 kts 330°
2026-04-24 22:12 41.09584 14.84316 8396 ft 232 kts 329°
2026-04-24 22:13 41.10921 14.83136 8251 ft 229 kts 320°
2026-04-24 22:13 41.11680 14.81352 8086 ft 223 kts 279°
2026-04-24 22:13 41.11437 14.79359 7980 ft 219 kts 251°
2026-04-24 22:13 41.10870 14.77475 7833 ft 221 kts 249°
2026-04-24 22:14 41.10277 14.75581 7698 ft 223 kts 248°
2026-04-24 22:14 41.09606 14.73722 7552 ft 224 kts 243°
2026-04-24 22:14 41.08852 14.71940 7415 ft 224 kts 240°
2026-04-24 22:14 41.08045 14.70169 7286 ft 224 kts 239°
2026-04-24 22:15 41.07221 14.68416 7139 ft 223 kts 239°
2026-04-24 22:15 41.06412 14.66713 7003 ft 209 kts 240°
2026-04-24 22:15 41.05673 14.65162 6815 ft 187 kts 240°
2026-04-24 22:15 41.05026 14.63802 6625 ft 161 kts 240°
2026-04-24 22:16 41.04465 14.62621 6388 ft 146 kts 240°
2026-04-24 22:16 41.03929 14.61489 6203 ft 145 kts 240°
2026-04-24 22:16 41.03392 14.60353 5997 ft 145 kts 240°
2026-04-24 22:16 41.02857 14.59224 5784 ft 144 kts 240°
2026-04-24 22:17 41.02325 14.58102 5582 ft 143 kts 241°
2026-04-24 22:17 41.01796 14.56987 5363 ft 142 kts 241°
2026-04-24 22:17 41.01283 14.55899 5161 ft 140 kts 237°
2026-04-24 22:17 41.00761 14.54802 4939 ft 141 kts 240°
2026-04-24 22:18 41.00240 14.53702 4772 ft 141 kts 241°
2026-04-24 22:18 40.99720 14.52606 4527 ft 138 kts 241°
2026-04-24 22:18 40.99210 14.51530 4337 ft 138 kts 242°
2026-04-24 22:18 40.98699 14.50451 4107 ft 138 kts 240°
2026-04-24 22:19 40.98201 14.49399 3926 ft 135 kts 242°
2026-04-24 22:19 40.97697 14.48333 3734 ft 137 kts 242°
2026-04-24 22:19 40.97193 14.47267 3519 ft 135 kts 242°
2026-04-24 22:19 40.96695 14.46215 3322 ft 134 kts 242°
2026-04-24 22:20 40.96202 14.45173 3128 ft 134 kts 243°
2026-04-24 22:20 40.95714 14.44142 2932 ft 133 kts 243°
2026-04-24 22:20 40.95235 14.43128 2740 ft 127 kts 241°
2026-04-24 22:20 40.94774 14.42152 2551 ft 124 kts 240°
2026-04-24 22:21 40.94316 14.41183 2379 ft 125 kts 238°
2026-04-24 22:21 40.93854 14.40204 2187 ft 125 kts 237°
2026-04-24 22:21 40.93391 14.39225 2002 ft 126 kts 237°
2026-04-24 22:21 40.92920 14.38228 1819 ft 129 kts 236°
2026-04-24 22:22 40.92441 14.37217 1625 ft 130 kts 236°
2026-04-24 22:22 40.91962 14.36198 1430 ft 131 kts 239°
2026-04-24 22:22 40.91471 14.35169 1195 ft 134 kts 238°
2026-04-24 22:22 40.90975 14.34116 975 ft 135 kts 239°
2026-04-24 22:23 40.90494 14.33069 732 ft 134 kts 239°
2026-04-24 22:23 40.89992 14.32035 577 ft 132 kts 238°
2026-04-24 22:23 40.89509 14.31005 388 ft 131 kts 238°
2026-04-24 22:23 40.89037 14.30008 249 ft 121 kts 238°
2026-04-24 22:24 40.88646 14.29169 264 ft 87 kts 238°
2026-04-24 22:24 40.88408 14.28671 276 ft 36 kts 237°
2026-04-24 22:24 40.88264 14.28461 281 ft 29 kts 215°
2026-04-24 22:24 40.88141 14.28372 285 ft 15 kts 208°
2026-04-24 22:25 40.88052 14.28306 287 ft 11 kts 215°
2026-04-24 22:25 40.87990 14.28246 289 ft 11 kts 238°
2026-04-24 22:25 40.87967 14.28160 294 ft 3 kts 243°
2026-04-24 22:25 40.87949 14.28146 291 ft 3 kts 189°
2026-04-24 22:26 40.87929 14.28152 292 ft 3 kts 165°
2026-04-24 22:26 40.87909 14.28160 292 ft 3 kts 163°
2026-04-24 22:26 40.87891 14.28166 292 ft 1 kts 164°
2026-04-24 22:26 40.87890 14.28167 292 ft 0 kts 164°